This demonstration page uses our WeatherBlox Daily Observations layout. Learn more.

Left ArrowRight Arrow

Hourly Observations for August 10, 2020

Temp ( °F °C ) Dew Point ( °F °C ) Humidity (%) Winds ( mph kmh ) Pressure ( in mb ) Visibility ( mi km ) Precip ( " mm )
12:54 am 00:54 Clear 79 26.1 70 21.1 74 74 S 5 7 29.84 1010 10 16.0934 0 0
1:54 am 01:54 Clear 78 25.6 70 21.1 76 76 S 7 11 29.82 1010 10 16.0934 0 0
2:54 am 02:54 Clear 80 26.7 70 21.1 71 71 SSW 7 11 29.8 1009 10 16.0934 0 0
3:54 am 03:54 Clear 81 27.2 69 20.6 67 67 W 5 7 29.8 1009 10 16.0934 0 0
4:54 am 04:54 Clear 79 26.1 69 20.6 72 72 WNW 5 7 29.81 1010 10 16.0934 0 0
5:54 am 05:54 Clear 73 22.8 69 20.6 87 87 S 6 9 29.8 1009 10 16.0934 0 0
6:54 am 06:54 Sunny 71 21.7 67 19.4 87 87 S 6 9 29.83 1010 10 16.0934 0 0
7:54 am 07:54 Sunny 77 25 70 21.1 79 79 N 8 13 29.87 1012 9 14.48406 0 0
8:54 am 08:54 Partly Cloudy 80 26.7 71 21.7 74 74 NNW 14 22 29.91 1013 9 14.48406 0 0
9:12 am 09:12 Mostly Cloudy with Haze 76 24.4 70 21.1 82 82 N 47 76 29.93 1013 6 9.65604 0 0
9:19 am 09:19 Cloudy with Light Rain 68 20 63 17.2 84 84 N 39 63 29.97 1015 5 8.0467 0.001 0.001
9:26 am 09:26 Cloudy with Light Rain 68 20 62 16.7 81 81 N 31 50 29.97 1015 9 14.48406 0.001 0.001
9:43 am 09:43 Partly Cloudy 68 20 61 16.1 78 78 NNE 22 35 29.97 1015 9 14.48406 0.001 0.001
9:54 am 09:54 Sunny 71 21.7 61 16.1 71 71 NNE 22 35 29.97 1015 9 14.48406 0.001 0.001
10:54 am 10:54 Sunny 74 23.3 60 15.6 62 62 NNE 23 37 29.98 1015 10 16.0934 0 0
11:54 am 11:54 Sunny 75 23.9 59 15 58 58 NE 17 28 30 1016 10 16.0934 0 0
12:54 pm 12:54 Sunny 78 25.6 60 15.6 54 54 NE 12 19 29.96 1015 10 16.0934 0 0
1:54 pm 13:54 Sunny 82 27.8 62 16.7 51 51 ESE 8 13 29.95 1014 10 16.0934 0 0
2:54 pm 14:54 Sunny 84 28.9 62 16.7 48 48 VRB 5 7 29.93 1014 10 16.0934 0 0
3:54 pm 15:54 Sunny 86 30 63 17.2 46 46 NNE 8 13 29.93 1014 9 14.48406 0 0
4:54 pm 16:54 Sunny 84 28.9 64 17.8 51 51 undefined N/A 29.92 1013 10 16.0934 0 0
5:54 pm 17:54 Sunny 84 28.9 62 16.7 48 48 NNE 9 15 29.91 1013 9 14.48406 0 0
6:54 pm 18:54 Sunny 82 27.8 65 18.3 56 56 NNE 12 19 29.9 1013 10 16.0934 0 0
7:54 pm 19:54 Sunny 78 25.6 64 17.8 62 62 NNE 8 13 29.93 1013 9 14.48406 0 0
8:54 pm 20:54 Clear 74 23.3 64 17.8 71 71 NNE 10 17 29.92 1013 10 16.0934 0 0
9:54 pm 21:54 Clear 70 21.1 63 17.2 79 79 NNE 6 9 29.95 1014 10 16.0934 0 0
10:54 pm 22:54 Clear 69 20.6 63 17.2 81 81 NNE 9 15 29.96 1015 10 16.0934 0 0
11:54 pm 23:54 Clear 68 20 62 16.7 81 81 undefined N/A 29.96 1014 10 16.0934 0 0

Powered by AerisWeather